{"data":{"norad_id":67910,"intl_designator":"2026-036G","name":"STARLINK-36847","alt_names":[],"object_type":"PAYLOAD","status":"ACTIVE","operator":null,"country":"US","launch_date":"2026-02-22","launch_site_code":"AFETR","launch_vehicle":null,"mission":null,"orbit_class":"UNKNOWN","rcs_meters":null,"size_class":null,"mass_kg":null,"dimensions":null,"purposes":["comms"],"wikipedia_slug":null,"has_3d_model":false,"image_url":null,"decayed_at":null,"tle_current":{"epoch":"2026-09-19T23:19:10.740576Z","epoch_age_seconds":108913,"freshness":"FRESH","line1":"1 67910U 26036G   26262.97165209  .00012959  00000+0  47945-3 0  9994","line2":"2 67910  43.0005 228.1864 0001365 264.5498  95.5198 15.27591597 33432","mean_motion":15.27591597,"eccentricity":0.0001365,"inclination_deg":43.0005,"raan_deg":228.1864,"arg_perigee_deg":264.5498,"mean_anomaly_deg":95.5198,"bstar":0.00047945,"rev_number":3343,"period_min":94.266033069832,"perigee_km":482.07782350725,"apogee_km":483.95091783144,"semimajor_km":6861.1513706693,"source":"CELESTRAK","updated_at":"2026-09-20T09:00:43.702127Z"}}}